Simultaneous Nadir Overpasses (SNOs) Predictions

Prediction of SNOs between AURA and NPP Satellite Orbit:

Table of predicted SNOs for the next 14.0 days since TLE Epoch: 4/20/2024
Index Date (AURA) Time (AURA) Lat,Lon (AURA) SZA (AURA ) Date (NPP) Time (NPP) Lat,Lon (NPP) SZA (NPP ) Distance(km) Time Diff (sec)
1 04/20/2024 22:25:55 -80.42, -70.13 101.21 04/20/2024 22:24:42 -80.41, -70.29 101.13 2.90 73
2 04/20/2024 23:15:15 80.53, 98.63 78.59 04/20/2024 23:15:22 80.52, 98.51 78.61 2.31 7
3 04/23/2024 13:00:03 -80.54, 72.56 102.30 04/23/2024 13:00:02 -80.54, 72.51 102.29 1.01 1
4 04/26/2024 02:44:45 80.56, 46.69 76.81 04/26/2024 02:44:39 80.57, 46.75 76.80 0.95 6
5 04/26/2024 03:33:47 -81.15,-137.97 104.42 04/26/2024 03:35:01 -81.02,-137.70 104.52 15.32 74
6 04/28/2024 16:29:27 -80.54, 20.27 103.97 04/28/2024 16:29:20 -80.54, 20.25 103.97 0.46 7
7 04/28/2024 17:18:47 80.64,-171.01 75.84 04/28/2024 17:20:00 80.64,-170.99 75.79 0.63 73
8 05/01/2024 06:14:03 80.56, -5.67 75.21 05/01/2024 06:13:58 80.55, -5.77 75.23 1.81 5
9 05/01/2024 07:02:37 -81.63,-179.45 107.54 05/01/2024 07:03:51 -81.30,-179.15 107.72 36.95 74



Historial Predications of SNOs between AURA and NPP
